Flag for Albania

Past Weather in Mali i Burdit të Vogël, Albania — Yesterday and Last 2 Weeks

Now
57 °F

Clear.


Feels Like: 57 °F
Forecast: 79 / 56 °F
Wind: 2 mph from North

Location: Tirana Airport

Current Time: Oct 17, 2019 at 12:02:26 am

Latest Report: Oct 16, 2019 at 11:20 pm


Visibility: 10 mi

Pressure: 30.07 "Hg

Humidity: 94%

Dew Point: 55 °F

Location of Mali i Burdit të VogëlLocation

Past Weather in Mali i Burdit të Vogël — Graph

°F

Mali i Burdit të Vogël Temperature Yesterday

Maximum temperature yesterday: 82 °F (at 1:50 pm)
Minimum temperature yesterday: 55 °F (at 4:20 am)
Average temperature yesterday: 66 °F

High & Low Weather Summary for the Past Weeks

 TemperatureHumidityPressure
High86 °F (Oct 10, 12:50 pm)100% (Oct 3, 11:50 pm)30.21 "Hg (Oct 3, 11:50 pm)
Low48 °F (Oct 7, 6:50 am)34% (Oct 7, 1:50 pm)29.71 "Hg (Oct 3, 5:20 am)
Average65 °F77%29.98 "Hg
* Reported Oct 1 10:20 pm — Oct 16 10:50 pm, Mali i Burdit të Vogël. Weather by CustomWeather, © 2019

Note: Actual official high and low records may vary slightly from our data, if they occured in-between our weather recording intervals... More about our weather records

Advertising

Mali i Burdit të Vogël Weather History for the Previous 24 Hours

Scroll right to see more
 ConditionsComfort  
Time TempWeatherWind HumidityBarometerVisibility
10:50 pm
Wed, Oct 16
57 °FClear.3 mph94%30.07 "Hg10 mi
10:20 pm59 °FClear.2 mph94%30.07 "Hg10 mi
9:50 pm59 °FClear.2 mph94%30.04 "Hg4 mi
9:20 pm61 °FClear.1 mph94%30.04 "Hg4 mi
8:50 pm61 °FClear.2 mph88%30.04 "Hg10 mi
8:20 pm63 °FClear.2 mph88%30.04 "Hg10 mi
7:50 pm63 °FClear.2 mph88%30.04 "Hg10 mi
7:20 pm64 °FClear.1 mph83%30.04 "Hg10 mi
6:50 pm66 °FClear.2 mph78%30.04 "Hg10 mi
6:20 pm68 °FClear.No wind78%30.04 "Hg10 mi
5:50 pm72 °FSunny.5 mph65%30.01 "Hg10 mi
5:20 pm73 °FSunny.3 mph65%30.01 "Hg10 mi
4:50 pm75 °FSunny.6 mph57%30.01 "Hg10 mi
4:20 pm75 °FSunny.7 mph61%30.01 "Hg10 mi
3:50 pm77 °FSunny.8 mph54%30.01 "Hg10 mi
3:20 pm79 °FPassing clouds.6 mph58%30.01 "HgN/A
2:50 pm81 °FPassing clouds.5 mph48%30.04 "HgN/A
2:20 pm81 °FSunny.3 mph48%30.04 "Hg10 mi
1:50 pm82 °FSunny.1 mph45%30.04 "Hg10 mi
1:20 pm79 °FSunny.2 mph51%30.04 "Hg10 mi
12:50 pm79 °FPassing clouds.3 mph54%30.07 "HgN/A
12:20 pm79 °FPassing clouds.3 mph54%30.07 "HgN/A
11:20 am75 °FSunny.1 mph54%30.07 "Hg10 mi
10:50 am73 °FSunny.1 mph61%30.07 "Hg10 mi
10:20 am72 °FSunny.2 mph65%30.07 "Hg10 mi
9:50 am68 °FPassing clouds.5 mph73%30.07 "HgN/A
9:20 am66 °FPassing clouds.5 mph83%30.07 "HgN/A
8:50 am63 °FPassing clouds.3 mph88%30.04 "HgN/A
8:20 am61 °FSunny.2 mph88%30.04 "Hg10 mi
7:50 am57 °FSunny.2 mph94%30.04 "Hg10 mi
7:20 am55 °FLight fog.6 mph94%30.04 "Hg2 mi
6:50 am55 °FRain. Light fog.3 mph94%30.04 "Hg3 mi
6:20 am55 °FLight fog.2 mph94%30.04 "Hg2 mi
5:50 am55 °FRain. Light fog.3 mph100%30.04 "Hg3 mi
4:50 am57 °FLight fog.2 mph94%30.07 "Hg2 mi
4:20 am55 °FRain. Light fog.2 mph100%30.07 "Hg3 mi
3:50 am57 °FLight fog.2 mph94%30.04 "Hg1 mi
3:20 am57 °FRain. Overcast.2 mph94%30.07 "Hg4 mi
2:50 am59 °FLight fog.2 mph94%30.07 "Hg2 mi
2:20 am59 °FLight fog.3 mph94%30.07 "Hg2 mi
1:50 am59 °FLight fog.2 mph94%30.07 "Hg1 mi
1:20 am57 °FLight fog.2 mph100%30.07 "Hg2 mi
12:50 am59 °FLight fog.2 mph94%30.07 "Hg2 mi
12:20 am59 °FRain. Light fog.2 mph94%30.07 "Hg2 mi
Weather by CustomWeather, © 2019

See weather overview